Flag for Brazil Weather past 2 weeks in Rio Branco, Acre, Brazil

Now
90 °F

Scattered clouds.


Feels Like: 100 °F
Forecast: N/A
Wind: 5 mph from North

Location: Rio Branco Airport

Current Time: Mar 27, 2015 at 5:18:17 PM

Latest Report: Mar 27, 2015 at 4:00 PM


Visibility: N/A

Pressure: 29.77 "Hg

Humidity: 63%

Dew point: 75 °F

Location of Rio BrancoLocation

Historic Weather in Rio Branco — Graph

°F

Rio Branco temperature yesterday

Maximum temperature yesterday: 88 °F (at 12:00 PM)
Minimum temperature yesterday: 72 °F (at 2:00 AM)
Average temperature yesterday: 79 °F

Past Weeks' High & Low Weather Summary

 TemperatureHumidityPressure
High91 °F (Mar 27, 3:00 PM)100% (Mar 13, 4:00 AM)30.04 "Hg (Mar 13, 4:00 AM)
Low39 °F (Mar 18, 5:00 PM)59% (Mar 26, 3:00 PM)29.68 "Hg (Mar 13, 4:00 PM)
Average77 °F89%29.86 "Hg
* Reported Mar 12 4:00 PM — Mar 27 4:00 PM, Rio Branco, Weather by CustomWeather, © 2015

Note: Actual official high and low records may vary slightly from our data, if they occured in-between our weather recording intervals... More about our weather records

Advertising

Rio Branco weather history for previous 24 hours

 ConditionsComfort  
Time TempWeatherWind HumidityBarometerVisibility
4:00 PM
Fri, Mar 27
90 °FScattered clouds.5 mph63%29.77 "HgN/A
3:00 PM91 °FScattered clouds.3 mph59%29.77 "HgN/A
2:00 PM90 °FScattered clouds.7 mph63%29.80 "HgN/A
1:00 PM90 °FPartly sunny.7 mph59%29.86 "HgN/A
12:00 PM88 °FPartly sunny.9 mph66%29.89 "HgN/A
11:00 AM86 °FBroken clouds.8 mph70%29.95 "HgN/A
10:00 AM82 °FPartly sunny.7 mph79%29.95 "HgN/A
9:00 AM79 °FPartly sunny.5 mph89%29.98 "HgN/A
8:00 AM77 °FSunny.6 mph89%29.95 "Hg10 mi
7:00 AM75 °FSunny.2 mph94%29.95 "Hg10 mi
6:00 AM73 °FClear.3 mph94%29.89 "Hg10 mi
5:00 AM73 °FPassing clouds.5 mph94%29.89 "HgN/A
4:00 AM73 °FClear.6 mph94%29.86 "Hg10 mi
3:00 AM73 °FClear.3 mph94%29.86 "Hg10 mi
2:00 AM73 °FClear.2 mph94%29.86 "Hg10 mi
1:00 AM75 °FClear.3 mph94%29.86 "Hg10 mi
12:00 AM75 °FClear.3 mph94%29.89 "Hg10 mi
11:00 PM
Thu, Mar 26
75 °FClear.3 mph94%29.89 "Hg10 mi
10:00 PM75 °FClear.2 mph94%29.89 "Hg10 mi
9:00 PM75 °FPartly cloudy.6 mph94%29.89 "HgN/A
8:00 PM77 °FPartly cloudy.7 mph89%29.83 "HgN/A
7:00 PM79 °FPassing clouds.7 mph84%29.80 "HgN/A
6:00 PM81 °FPartly sunny.7 mph79%29.80 "HgN/A
5:00 PM84 °FPartly sunny.5 mph70%29.77 "HgN/A
Weather by CustomWeather, © 2015

See weather overviewHow to use our weather pages